DW4719 Vilanova I la Geltru ES current weather conditions

sailwx.info

Wind from 124 at 3 knots

Air temperature 18.3° C
Dewpoint 14.0° C

Last reported at 2014-Nov-28 08:49 UTC.
Time now 2014-Nov-28 09:32 UTC

Location: N 41°13' E 001°44'.
View on Google Maps.

See reports from other nearby stations

  
Tides and Currents Weather Stations Pressure Air Temp Water Temp Dewpoint Dewpoint Depression Visibility Wind Speed Wind Dir Waves Ship Positions
date/time (UTC)wind fromknots sea level pressurealtimeterstation pressurevisibilityair tempwater tempwave heightnotes
2014-Nov-28 08:49 124 3 18.3
2014-Nov-28 08:34 160 3 18.3
2014-Nov-28 08:19 160 3 18.3
2014-Nov-28 08:04 138 2 17.8
2014-Nov-28 07:55 120 3 17.2
2014-Nov-28 07:49 120 1 17.2
2014-Nov-28 07:45 116 0 17.2
2014-Nov-28 07:34 147 17.2
2014-Nov-28 07:19 174 1 17.2
2014-Nov-28 07:04 174 1 17.2
2014-Nov-28 06:54 162 0 16.7
2014-Nov-28 06:50 161 16.7
2014-Nov-28 06:45 168 16.7
2014-Nov-28 05:48 161 1 16.7
2014-Nov-28 05:34 162 3 16.7
2014-Nov-28 05:18 150 3 16.7
2014-Nov-28 05:04 155 2 16.7
2014-Nov-28 04:54 169 2 16.7
2014-Nov-28 04:50 192 2 16.7
2014-Nov-28 04:48 179 2 16.7
2014-Nov-28 04:45 169 3 16.7
2014-Nov-28 04:34 165 4 16.7
2014-Nov-28 04:18 150 2 16.7
2014-Nov-28 04:04 174 1 16.7
2014-Nov-28 03:56 181 1 16.7
2014-Nov-28 03:50 182 2 16.7
2014-Nov-28 03:45 167 3 16.7
2014-Nov-28 03:34 167 4 16.1
2014-Nov-28 03:20 152 6 15.6
2014-Nov-28 03:04 131 5 15.6
2014-Nov-28 02:55 179 3 15.0
2014-Nov-28 02:50 216 2 14.4
2014-Nov-28 02:49 182 2 14.4
2014-Nov-28 02:45 151 2 13.9
2014-Nov-28 02:34 237 10 13.9
2014-Nov-28 02:19 243 6 15.6
2014-Nov-28 02:04 181 6 18.3
2014-Nov-28 01:59 148 6 18.3
2014-Nov-28 01:55 092 6 18.3
2014-Nov-28 01:50 089 6 18.3
2014-Nov-28 01:49 134 6 18.3
2014-Nov-28 01:45 117 6 18.3
2014-Nov-28 01:34 123 4 18.3
2014-Nov-28 01:19 096 4 18.3
2014-Nov-28 01:04 090 2 17.8
2014-Nov-28 00:59 133 3 17.8
2014-Nov-28 00:56 076 2 17.8
2014-Nov-28 00:50 083 2 17.8
2014-Nov-28 00:45 078 3 17.8
2014-Nov-28 00:34 086 4 17.8
2014-Nov-28 00:19 089 4 17.8
2014-Nov-28 00:04 085 3 17.2
2014-Nov-27 23:55 075 3 17.2
2014-Nov-27 23:50 097 3 17.2
2014-Nov-27 23:49 076 3 17.2
2014-Nov-27 23:45 086 3 17.2
2014-Nov-27 23:34 079 1 17.2
2014-Nov-27 23:19 082 3 17.2
2014-Nov-27 23:04 088 1 16.7
2014-Nov-27 22:55 082 1 16.7
2014-Nov-27 22:50 093 1 16.7
2014-Nov-27 22:49 086 1 16.7
2014-Nov-27 22:45 123 0 16.7
2014-Nov-27 22:34 055 0 16.7
2014-Nov-27 22:19 082 16.1
2014-Nov-27 22:04 064 15.6
2014-Nov-27 21:55 051 15.6
2014-Nov-27 21:50 044 15.6
2014-Nov-27 21:49 047 15.6
2014-Nov-27 21:45 045 15.6
2014-Nov-27 21:34 040 15.6
2014-Nov-27 21:19 056 15.0
2014-Nov-27 21:04 052 14.4
2014-Nov-27 20:55 051 14.4
2014-Nov-27 20:50 052 14.4
2014-Nov-27 20:49 051 14.4
2014-Nov-27 20:45 051 14.4
2014-Nov-27 20:34 051 14.4
2014-Nov-27 20:19 051 14.4
2014-Nov-27 20:04 051 14.4
2014-Nov-27 19:55 049 14.4
2014-Nov-27 19:50 049 14.4
2014-Nov-27 19:49 049 14.4
2014-Nov-27 19:45 049 14.4
2014-Nov-27 19:34 049 14.4
2014-Nov-27 19:19 051 14.4
2014-Nov-27 19:03 049 14.4
2014-Nov-27 18:55 049 14.4
2014-Nov-27 18:50 049 14.4
2014-Nov-27 18:49 049 14.4
2014-Nov-27 18:45 049 15.0
2014-Nov-27 18:34 049 15.0
2014-Nov-27 18:19 049 15.0
2014-Nov-27 18:04 049 15.0
2014-Nov-27 17:55 049 15.0
2014-Nov-27 17:50 049 15.0
2014-Nov-27 17:49 049 15.0
2014-Nov-27 17:45 049 15.0
2014-Nov-27 17:33 049 15.6
2014-Nov-27 17:19 049 15.6
2014-Nov-27 17:03 065 15.0
2014-Nov-27 16:55 090 14.4
2014-Nov-27 16:50 103 14.4
2014-Nov-27 16:49 104 14.4
2014-Nov-27 16:45 124 15.0
2014-Nov-27 16:33 126 15.0
2014-Nov-27 16:19 130 15.0
2014-Nov-27 16:05 130 15.0
2014-Nov-27 15:55 130 6 15.6
2014-Nov-27 15:50 119 3 16.1
2014-Nov-27 15:49 141 2 16.7
2014-Nov-27 15:45 155 17.8
2014-Nov-27 15:35 179 17.8
2014-Nov-27 15:19 179 17.8
2014-Nov-27 15:04 181 17.8
2014-Nov-27 14:55 181 17.8
2014-Nov-27 14:50 181 17.8
2014-Nov-27 14:49 181 18.3
2014-Nov-27 14:45 181 18.3
2014-Nov-27 14:34 182 18.3
2014-Nov-27 14:19 192 18.3
2014-Nov-27 14:04 202 18.9
2014-Nov-27 13:55 193 0 18.9
2014-Nov-27 13:50 210 0 18.9
2014-Nov-27 13:49 184 0 18.9
2014-Nov-27 13:44 210 2 18.9
2014-Nov-27 13:34 175 0 18.9
2014-Nov-27 13:19 152 1 18.9
2014-Nov-27 13:05 171 4 18.3
2014-Nov-27 12:55 178 3 18.3
2014-Nov-27 12:50 220 2 18.3
2014-Nov-27 12:49 227 2 18.3
2014-Nov-27 12:46 191 1 17.8
2014-Nov-27 12:34 144 2 17.2
2014-Nov-27 12:19 071 16.7
2014-Nov-27 12:04 086 16.7
2014-Nov-27 11:55 148 16.7
2014-Nov-27 11:50 141 16.7
2014-Nov-27 11:49 096 16.7
2014-Nov-27 11:46 090 16.7
2014-Nov-27 11:34 090 16.1
2014-Nov-27 11:19 055 16.1
2014-Nov-27 11:04 055 15.6
2014-Nov-27 10:55 055 15.0
2014-Nov-27 10:50 055 15.0
2014-Nov-27 10:49 055 15.0
2014-Nov-27 10:45 055 15.0
2014-Nov-27 10:34 055 15.0
2014-Nov-27 10:19 058 15.0
2014-Nov-27 10:04 062 14.4
2014-Nov-27 09:55 056 14.4
2014-Nov-27 09:49 068 14.4
2014-Nov-27 09:45 064 13.9
2014-Nov-27 09:34 052 13.9
2014-Nov-27 09:19 065 13.9
2014-Nov-27 09:04 056 14.4
2014-Nov-27 08:55 311 14.4
2014-Nov-27 08:51 311 0 14.4
2014-Nov-27 08:49 311 2 14.4
2014-Nov-27 08:45 309 3 14.4
2014-Nov-27 08:34 052 1 13.9
2014-Nov-27 08:19 054 13.3
2014-Nov-27 08:04 055 12.2
2014-Nov-27 07:55 055 12.2
2014-Nov-27 07:51 055 12.2
2014-Nov-27 07:49 055 11.7
2014-Nov-27 07:45 055 11.7
2014-Nov-27 07:34 055 11.7
2014-Nov-27 07:19 045 11.7
2014-Nov-27 07:04 051 11.7
2014-Nov-27 06:55 052 11.7
2014-Nov-27 06:50 052 11.7
2014-Nov-27 06:49 052 11.7
2014-Nov-27 06:45 052 11.7
2014-Nov-27 06:34 052 11.7
2014-Nov-27 06:19 049 11.7
2014-Nov-27 06:04 056 11.7
2014-Nov-27 05:54 058 11.1
2014-Nov-27 05:50 058 11.1
2014-Nov-27 05:48 058 11.1
2014-Nov-27 05:45 058 11.7
2014-Nov-27 05:34 058 11.7
2014-Nov-27 05:18 058 11.7
2014-Nov-27 05:04 059 11.1
2014-Nov-27 04:54 052 11.1
2014-Nov-27 04:50 052 11.7
2014-Nov-27 04:48 052 11.7
2014-Nov-27 04:45 052 11.7
2014-Nov-27 04:34 054 11.7
2014-Nov-27 04:20 052 11.7
2014-Nov-27 04:04 054 11.7
2014-Nov-27 03:56 052 11.7
2014-Nov-27 03:50 054 11.7
2014-Nov-27 03:45 052 11.7
2014-Nov-27 03:34 052 11.7
2014-Nov-27 03:19 052 11.1
2014-Nov-27 03:04 052 11.1
2014-Nov-27 02:55 052 11.1
2014-Nov-27 02:50 052 11.1
2014-Nov-27 02:49 052 11.1
2014-Nov-27 02:45 052 11.1
2014-Nov-27 02:34 264 11.1
2014-Nov-27 02:19 264 11.1
2014-Nov-27 02:04 264 11.1
2014-Nov-27 01:59 264 11.1
2014-Nov-27 01:55 264 11.1
2014-Nov-27 01:50 264 11.1
2014-Nov-27 01:49 264 11.7
2014-Nov-27 01:45 264 11.7
2014-Nov-27 01:34 264 11.7
2014-Nov-27 01:19 264 11.7
2014-Nov-27 01:04 264 11.7
2014-Nov-27 00:59 264 11.7
2014-Nov-27 00:55 264 11.7
2014-Nov-27 00:50 264 11.7
2014-Nov-27 00:45 264 11.7
2014-Nov-27 00:34 264 11.7
2014-Nov-27 00:19 264 11.7
2014-Nov-27 00:04 264 11.7
2014-Nov-26 23:55 264 11.7
2014-Nov-26 23:50 264 11.7
2014-Nov-26 23:49 264 11.7
2014-Nov-26 23:45 264 11.7
2014-Nov-26 23:34 264 11.7
2014-Nov-26 23:19 264 11.7
2014-Nov-26 23:04 264 11.7
2014-Nov-26 22:55 264 11.7
2014-Nov-26 22:50 264 11.7
2014-Nov-26 22:49 264 11.7
2014-Nov-26 22:45 264 11.7
2014-Nov-26 22:34 264 11.7
2014-Nov-26 22:19 264 11.7
2014-Nov-26 22:04 264 12.2
2014-Nov-26 21:55 264 12.2
2014-Nov-26 21:50 264 12.2
2014-Nov-26 21:49 264 12.2
2014-Nov-26 21:45 264 12.2
2014-Nov-26 21:34 264 12.2
2014-Nov-26 21:19 264 12.8
2014-Nov-26 21:04 264 12.8
2014-Nov-26 20:55 264 12.8
2014-Nov-26 20:50 264 12.8
2014-Nov-26 20:49 264 12.8
2014-Nov-26 20:45 264 12.8
2014-Nov-26 20:34 264 13.3
2014-Nov-26 20:19 264 13.3
2014-Nov-26 20:04 264 13.3
2014-Nov-26 19:55 264 13.3
2014-Nov-26 19:50 264 13.3
2014-Nov-26 19:49 264 13.3
2014-Nov-26 19:45 264 13.3
2014-Nov-26 19:34 264 13.9
2014-Nov-26 19:19 229 13.9
2014-Nov-26 19:04 229 14.4
2014-Nov-26 18:55 229 14.4
2014-Nov-26 18:50 229 14.4
2014-Nov-26 18:49 229 14.4
2014-Nov-26 18:45 229 14.4
2014-Nov-26 18:34 229 15.0
2014-Nov-26 18:19 229 15.0
2014-Nov-26 18:03 229 15.6
2014-Nov-26 17:55 229 15.6
2014-Nov-26 17:50 229 15.6
2014-Nov-26 17:49 229 15.6
2014-Nov-26 17:45 229 16.1
2014-Nov-26 17:33 229 16.7
2014-Nov-26 17:19 229 16.7
2014-Nov-26 17:03 229 16.7
2014-Nov-26 16:55 229 16.7
2014-Nov-26 16:50 229 16.7
2014-Nov-26 16:49 229 16.7
2014-Nov-26 16:45 229 16.7
2014-Nov-26 16:33 229 16.7
2014-Nov-26 16:19 229 17.2
2014-Nov-26 16:03 239 17.2
2014-Nov-26 15:55 244 0 17.2
2014-Nov-26 15:50 246 17.8
2014-Nov-26 15:49 248 17.8
2014-Nov-26 15:45 264 17.8
2014-Nov-26 15:33 233 17.8
2014-Nov-26 15:19 224 17.8
2014-Nov-26 15:05 222 0 18.3
2014-Nov-26 14:55 232 0 17.8
2014-Nov-26 14:50 240 0 17.2
2014-Nov-26 14:49 240 0 17.2
2014-Nov-26 14:45 239 17.8
2014-Nov-26 14:34 233 17.8
2014-Nov-26 14:19 312 18.9
2014-Nov-26 14:04 313 18.3
2014-Nov-26 13:55 312 18.3
2014-Nov-26 13:50 312 18.3
2014-Nov-26 13:49 312 18.3
2014-Nov-26 13:45 312 18.3
2014-Nov-26 13:34 311 17.8
2014-Nov-26 13:19 318 18.3
2014-Nov-26 13:04 359 18.3
2014-Nov-26 12:55 360 17.8
2014-Nov-26 12:50 360 17.8
2014-Nov-26 12:49 336 17.8
2014-Nov-26 12:44 328 17.8
2014-Nov-26 12:34 017 0 17.2
2014-Nov-26 12:19 016 2 16.7
2014-Nov-26 12:04 003 1 16.1
2014-Nov-26 11:49 071 1 16.1
2014-Nov-26 11:34 079 15.6
2014-Nov-26 11:19 056 1 15.0
2014-Nov-26 11:04 068 3 15.0
2014-Nov-26 10:55 059 5 15.0
2014-Nov-26 10:49 073 2 15.0
2014-Nov-26 10:45 047 0 15.0
2014-Nov-26 10:34 058 0 15.6
2014-Nov-26 10:19 058 15.6
2014-Nov-26 10:04 058 15.6
2014-Nov-26 09:55 058 2 15.6
2014-Nov-26 09:49 076 2 15.6
2014-Nov-26 09:45 025 0 15.6
2014-Nov-26 09:34 285 1 15.6
2014-Nov-26 09:19 056 1 16.1
2014-Nov-26 09:04 104 1 16.7